Istanbul, Turkey

3:51 PM +03 on February 27, 2017 (GMT +0300)
Ataturk

Weather History for LTBA - May, 2011

Change the Weather History Date:

Saturday, May 14, 2011

  Actual Average Record
Temperature  
Mean Temperature 61 °F -  
Max Temperature 71 °F 73 °F 79 °F (2014)
Min Temperature 51 °F 58 °F 50 °F (2001)
Degree Days  
Heating Degree Days 4    
Growing Degree Days 11 (Base 50)    
Moisture  
Dew Point 53 °F    
Average Humidity 81    
Maximum Humidity 100    
Minimum Humidity 50    
Precipitation  
Precipitation 0.00 in - - ()
Sea Level Pressure  
Sea Level Pressure 30.02 in    
Wind  
Wind Speed 5 mph ()    
Max Wind Speed 12 mph    
Max Gust Speed -    
Visibility 2.4 miles    
Events Fog    
Averages and records for this station are not official NWS values.
T = Trace of Precipitation, MM = Missing Value Source: Averaged Metar Reports

Daily Weather History Graph

Daily Weather History Graph

Search for Another Location

Airport or City:

Trip Planner

Search our weather history database for the weather conditions in past years. The results will help you decide how hot, cold, wet, or windy it might be!

Date:

Astronomy

May. 14, 2011 Rise Set
Actual Time 5:48 AM EEST 8:14 PM EEST
Civil Twilight 5:17 AM EEST 8:45 PM EEST
Nautical Twilight 4:38 AM EEST 9:24 PM EEST
Astronomical Twilight 3:56 AM EEST 10:07 PM EEST
Moon 4:54 PM EEST (5/14) 3:25 AM EEST (5/14)
Length of Visible Light 15h 27m
Length of Day
14h 25m
Waxing Gibbous, 87% of the Moon is Illuminated
May 14
Waxing Gibbous
May 17
Full
May 24
Last Quarter
Jun 2
New
Jun 9
First Quarter

Hourly Weather History & Observations

Time (EEST) Temp. Dew Point Humidity Pressure Visibility Wind Dir Wind Speed Gust Speed Precip Events Conditions
12:20 AM 55.4 °F 53.6 °F 94% 30.04 in 4.3 mi South 4.6 mph - N/A   Unknown
12:50 AM 53.6 °F 51.8 °F 94% 30.04 in 3.7 mi Calm Calm - N/A   Unknown
1:20 AM 53.6 °F 51.8 °F 94% 30.04 in 3.7 mi Calm Calm - N/A   Unknown
1:50 AM 53.6 °F 53.6 °F 100% 30.04 in - East 4.6 mph - N/A   Mist
2:20 AM 53.6 °F 51.8 °F 94% 30.01 in 0.4 mi East 3.5 mph - N/A Fog Fog
2:50 AM 51.8 °F 51.8 °F 100% 30.01 in 0.4 mi Calm Calm - N/A Fog Fog
3:00 AM 51 °F 51 °F 98% 30.03 in 0 mi Calm Calm - - Fog Partial Fog
3:20 AM 51.8 °F 51.8 °F 100% 30.01 in 0.4 mi SW 2.3 mph - N/A Fog Fog
3:50 AM 51.8 °F 50.0 °F 94% 30.01 in 0.7 mi SW 4.6 mph - N/A Fog Patches of Fog
4:20 AM 53.6 °F 53.6 °F 100% 30.01 in 0.9 mi SW 5.8 mph - N/A Fog Patches of Fog
4:50 AM 53.6 °F 53.6 °F 100% 30.01 in 1.9 mi Variable 2.3 mph - N/A   Mist
5:20 AM 51.8 °F 51.8 °F 100% 30.01 in 1.9 mi Variable 2.3 mph - N/A   Mist
5:50 AM 53.6 °F 53.6 °F 100% 30.01 in 1.6 mi South 4.6 mph - N/A   Mist
6:20 AM 53.6 °F 53.6 °F 100% 30.01 in 1.1 mi Variable 2.3 mph - N/A   Mist
6:50 AM 53.6 °F 53.6 °F 100% 30.01 in 1.2 mi South 4.6 mph - N/A   Mist
7:20 AM 55.4 °F 55.4 °F 100% 30.01 in - SW 4.6 mph - N/A   Mist
7:50 AM 55.4 °F 55.4 °F 100% 30.04 in 2.5 mi SSW 6.9 mph - N/A   Mist
8:20 AM 57.2 °F 55.4 °F 94% 30.04 in 3.1 mi SSW 6.9 mph - N/A   Mist
8:50 AM 57.2 °F 55.4 °F 94% 30.04 in 2.5 mi SW 8.1 mph - N/A   Mist
9:00 AM 58 °F 55 °F 86% 30.04 in 2 mi SW 8.1 mph - -   Mist
9:20 AM 59.0 °F 53.6 °F 82% 30.04 in 2.5 mi SW 9.2 mph - N/A   Mist
9:50 AM 59.0 °F 53.6 °F 82% 30.04 in 2.5 mi SW 10.4 mph - N/A   Mist
10:20 AM 59.0 °F 53.6 °F 82% 30.04 in - SW 9.2 mph - N/A   Clear
10:50 AM 60.8 °F 55.4 °F 82% 30.04 in - SSW 9.2 mph - N/A   Clear
11:20 AM 60.8 °F 55.4 °F 82% 30.04 in - SW 9.2 mph - N/A   Clear
11:50 AM 60.8 °F 55.4 °F 82% 30.04 in - SSW 11.5 mph - N/A   Clear
12:20 PM 60.8 °F 53.6 °F 77% 30.04 in 6.2 mi SSW 10.4 mph - N/A   Partly Cloudy
12:50 PM 60.8 °F 53.6 °F 77% 30.04 in - SSW 8.1 mph - N/A   Clear
1:20 PM 62.6 °F 53.6 °F 72% 30.04 in - SSW 8.1 mph - N/A   Clear
1:50 PM 62.6 °F 53.6 °F 72% 30.04 in - SSW 6.9 mph - N/A   Clear
2:20 PM 64.4 °F 53.6 °F 68% 30.01 in - SSW 6.9 mph - N/A   Clear
2:50 PM 64.4 °F 53.6 °F 68% 30.01 in - SSW 6.9 mph - N/A   Clear
3:00 PM 64 °F 53 °F 60% 30.03 in 6 mi SSW 6.9 mph - -  
3:20 PM 64.4 °F 53.6 °F 68% 30.01 in - SW 9.2 mph - N/A   Clear
3:50 PM 64.4 °F 53.6 °F 68% 30.01 in - SW 9.2 mph - N/A   Clear
4:20 PM 64.4 °F 53.6 °F 68% 29.98 in - WSW 11.5 mph - N/A   Clear
4:50 PM 64.4 °F 53.6 °F 68% 29.98 in - SW 10.4 mph - N/A   Clear
5:20 PM 64.4 °F 53.6 °F 68% 29.98 in - SW 9.2 mph - N/A   Clear
5:50 PM 66.2 °F 55.4 °F 68% 29.98 in - SW 6.9 mph - N/A   Clear
6:20 PM 66.2 °F 55.4 °F 68% 29.98 in - Variable 2.3 mph - N/A   Clear
6:50 PM 71.6 °F 51.8 °F 50% 29.98 in - North 8.1 mph - N/A   Clear
7:20 PM 68.0 °F 51.8 °F 56% 29.98 in - NW 11.5 mph - N/A   Clear
7:50 PM 66.2 °F 51.8 °F 60% 30.01 in - NNW 9.2 mph - N/A   Clear
8:20 PM 64.4 °F 51.8 °F 64% 30.01 in - NW 8.1 mph - N/A   Clear
8:50 PM 62.6 °F 51.8 °F 68% 30.01 in - NW 8.1 mph - N/A   Clear
9:00 PM 62 °F 52 °F 61% 30.01 in 6 mi NW 8.1 mph - -  
9:20 PM 60.8 °F 51.8 °F 72% 30.01 in - NNW 10.4 mph - N/A   Clear
9:50 PM 60.8 °F 51.8 °F 72% 30.04 in - NNW 9.2 mph - N/A   Clear
10:20 PM 60.8 °F 51.8 °F 72% 30.04 in - NNW 9.2 mph - N/A   Clear
10:50 PM 59.0 °F 51.8 °F 77% 30.04 in - North 4.6 mph - N/A   Clear
11:20 PM 57.2 °F 51.8 °F 82% 30.04 in - NNW 6.9 mph - N/A   Clear
11:50 PM 57.2 °F 51.8 °F 82% 30.04 in - NNW 8.1 mph - N/A   Clear